GW4014 Weather Reports


time (UTC)temp
F
wind
direction
speed
knots
gust
knots
rain 1hr
in
rain 24hr
in
rain mn
in
humidity
%
barometer
mb
20260510164510 85 280 0.0 5.2 0.00 0.00 0.00 35 1015.0
20260510164010 84 90 2.6 3.5 0.00 0.00 0.00 34 1015.0
20260510163511 83 22 0.9 6.1 0.00 0.00 0.00 35 1015.0
20260510163010 83 100 0.9 1.7 0.00 0.00 0.00 35 1015.0
20260510162510 80 35 1.7 4.3 0.00 0.00 0.00 35 1015.0
20260510162011 81 28 0.9 4.3 0.00 0.00 0.00 38 1015.0
20260510161511 81 254 0.9 3.5 0.00 0.00 0.00 37 1015.0
20260510160758 80 232 1.7 4.3 0.00 0.00 0.00 40 1015.0
20260510160259 79 143 1.7 5.2 0.00 0.00 0.00 38 1015.0
20260510155759 81 338 2.6 2.6 0.00 0.00 0.00 37 1015.0
20260510155258 81 81 0.9 3.5 0.00 0.00 0.00 38 1015.0
20260510154758 79 68 0.9 4.3 0.00 0.00 0.00 40 1015.0
20260510154044 79 0 1.7 2.6 0.00 0.00 0.00 41 1015.0
20260510153544 79 304 0.0 5.2 0.00 0.00 0.00 41 1015.0
20260510153044 78 198 0.9 1.7 0.00 0.00 0.00 42 1015.0
20260510152544 77 30 0.9 2.6 0.00 0.00 0.00 41 1015.0
20260510151832 77 80 0.9 1.7 0.00 0.00 0.00 41 1015.0
20260510151334 77 328 0.9 2.6 0.00 0.00 0.00 44 1015.0
20260510150833 76 290 0.9 4.3 0.00 0.00 0.00 45 1015.0
20260510150333 75 230 0.0 2.6 0.00 0.00 0.00 47 1015.0
20260510145832 74 116 0.0 2.6 0.00 0.00 0.00 47 1015.0
20260510145119 74 27 0.9 2.6 0.00 0.00 0.00 46 1015.0
20260510144620 73 59 1.7 1.7 0.00 0.00 0.00 46 1015.0
20260510144119 72 33 0.9 2.6 0.00 0.00 0.00 46 1014.0
20260510143619 71 321 0.0 3.5 0.00 0.00 0.00 49 1014.0
20260510142444 71 20 0.9 2.6 0.00 0.00 0.00 49 1014.0
20260510141943 71 328 0.9 3.5 0.00 0.00 0.00 51 1014.0
20260510141231 70 131 1.7 2.6 0.00 0.00 0.00 51 1014.0
20260510140731 69 14 0.9 1.7 0.00 0.00 0.00 54 1014.0
20260510140233 69 11 0.9 1.7 0.00 0.00 0.00 54 1014.0
20260510135731 68 29 0.0 1.7 0.00 0.00 0.00 59 1014.0
20260510135231 67 41 0.9 2.6 0.00 0.00 0.00 59 1015.0
20260510134732 67 314 0.9 2.6 0.00 0.00 0.00 61 1015.0
20260510134231 66 330 0.9 0.9 0.00 0.00 0.00 62 1014.0
20260510133520 65 40 0.0 0.9 0.00 0.00 0.00 64 1015.0
20260510133020 65 254 0.0 0.9 0.00 0.00 0.00 66 1014.0
20260510132520 64 58 0.0 0.9 0.00 0.00 0.00 67 1014.0
20260510132020 64 90 0.0 0.9 0.00 0.00 0.00 67 1014.0
20260510131520 63 31 0.9 2.6 0.00 0.00 0.00 67 1014.0
20260510131020 62 90 0.0 0.0 0.00 0.00 0.00 71 1014.0
20260510125843 61 58 0.0 0.0 0.00 0.00 0.00 72 1014.0
20260510125343 61 37 0.0 0.9 0.00 0.00 0.00 72 1015.0
20260510124844 60 20 0.9 0.9 0.00 0.00 0.00 74 1015.0
20260510124342 60 254 0.0 0.9 0.00 0.00 0.00 77 1015.0
20260510123632 59 296 0.9 0.9 0.00 0.00 0.00 79 1015.0
20260510123130 59 231 0.9 0.9 0.00 0.00 0.00 79 1015.0
20260510122630 58 226 0.0 1.7 0.00 0.00 0.00 80 1015.0
20260510122130 58 179 0.0 0.9 0.00 0.00 0.00 81 1015.0
20260510121631 56 204 0.0 0.0 0.00 0.00 0.00 82 1014.0
20260510120707 56 200 0.0 0.9 0.00 0.00 0.00 83 1014.0
20260510120207 55 153 0.9 0.9 0.00 0.00 0.00 84 1014.0
20260510115708 55 162 0.9 1.7 0.00 0.00 0.00 84 1014.0
20260510115208 54 159 0.9 0.9 0.00 0.00 0.00 83 1014.0
20260510114707 54 43 0.0 0.9 0.00 0.00 0.00 84 1014.0
20260510114208 53 216 0.0 0.9 0.00 0.00 0.00 84 1014.0
20260510113708 53 0 0.0 1.7 0.00 0.00 0.00 84 1014.0
20260510113208 52 293 0.0 0.9 0.00 0.00 0.00 84 1014.0
20260510112707 52 311 0.0 0.9 0.00 0.00 0.00 84 1014.0
20260510112207 52 209 0.0 0.9 0.00 0.00 0.00 84 1014.0
20260510111708 52 301 0.0 0.0 0.00 0.00 0.00 84 1014.0
20260510111208 52 179 0.0 0.9 0.00 0.00 0.00 85 1014.0
20260510110707 52 0 0.0 0.9 0.00 0.00 0.00 85 1014.0
20260510105954 51 179 0.0 2.6 0.00 0.00 0.00 84 1013.0
20260510105455 51 254 0.0 0.9 0.00 0.00 0.00 84 1013.0
20260510104742 50 0 0.9 1.7 0.00 0.00 0.00 84 1013.0
20260510104241 50 313 0.0 1.7 0.00 0.00 0.00 84 1013.0
20260510103742 50 34 0.0 0.9 0.00 0.00 0.00 83 1013.0
20260510103241 51 325 0.9 0.9 0.00 0.00 0.00 84 1013.0
20260510102742 51 323 0.9 1.7 0.00 0.00 0.00 84 1013.0
20260510102241 51 65 0.0 0.9 0.00 0.00 0.00 84 1013.0
20260510101742 51 122 0.0 1.7 0.00 0.00 0.00 85 1013.0
20260510101241 51 90 0.0 0.9 0.00 0.00 0.00 86 1013.0
20260510100741 51 183 0.0 0.9 0.00 0.00 0.00 85 1013.0
20260510100242 51 0 0.0 0.0 0.00 0.00 0.00 86 1012.0
20260510095742 51 149 0.0 1.7 0.00 0.00 0.00 88 1012.0
20260510095241 51 179 0.9 0.9 0.00 0.00 0.00 87 1013.0
20260510094741 51 179 0.0 3.5 0.00 0.00 0.00 86 1013.0
20260510094029 51 129 0.0 0.9 0.00 0.00 0.00 86 1012.0
20260510093529 51 292 0.0 0.9 0.00 0.00 0.00 86 1013.0
20260510093029 51 193 0.0 0.9 0.00 0.00 0.00 86 1013.0
20260510092318 50 215 0.0 0.9 0.00 0.00 0.00 86 1012.0
20260510091818 50 0 0.9 0.9 0.00 0.00 0.00 86 1012.0
20260510091316 50 288 0.0 1.7 0.00 0.00 0.00 86 1012.0
20260510090604 51 309 0.0 1.7 0.00 0.00 0.00 85 1012.0
20260510085853 51 56 1.7 1.7 0.00 0.00 0.00 85 1012.0
20260510085140 51 162 0.0 0.9 0.00 0.00 0.00 84 1012.0
20260510084639 51 179 0.0 0.9 0.00 0.00 0.00 84 1012.0
20260510083928 51 179 0.0 0.9 0.00 0.00 0.00 84 1012.0
20260510083428 51 254 0.0 0.9 0.00 0.00 0.00 84 1012.0
20260510082929 51 0 0.9 0.9 0.00 0.00 0.00 84 1012.0
20260510082428 51 0 0.0 0.9 0.00 0.00 0.00 84 1012.0
20260510081929 52 320 0.9 0.9 0.00 0.00 0.00 84 1012.0
20260510081429 52 150 0.0 0.9 0.00 0.00 0.00 84 1012.0
20260510080928 52 227 0.0 0.9 0.00 0.00 0.00 85 1012.0
20260510080428 52 286 0.0 0.9 0.00 0.00 0.00 84 1012.0
20260510075928 52 209 0.0 0.9 0.00 0.00 0.00 84 1012.0
20260510075428 52 46 0.0 0.9 0.00 0.00 0.00 83 1012.0
20260510074928 52 331 0.9 0.9 0.00 0.00 0.00 83 1012.0
20260510074428 52 17 0.0 0.9 0.00 0.00 0.00 83 1012.0
20260510073929 53 63 0.0 0.0 0.00 0.00 0.00 83 1011.0
20260510073428 53 37 0.0 0.9 0.00 0.00 0.00 83 1011.0
20260510072717 53 0 0.0 0.9 0.00 0.00 0.00 83 1011.0
20260510072215 53 0 0.0 0.9 0.00 0.00 0.00 83 1011.0
20260510071715 53 24 0.0 0.9 0.00 0.00 0.00 83 1012.0
20260510071215 53 203 0.0 0.0 0.00 0.00 0.00 83 1011.0
20260510070716 53 34 0.0 0.9 0.00 0.00 0.00 82 1011.0
20260510070002 54 60 0.0 0.0 0.00 0.00 0.00 82 1011.0
20260510065502 54 0 0.0 0.0 0.00 0.00 0.00 82 1011.0
20260510064752 54 0 0.0 0.9 0.00 0.00 0.00 82 1011.0
20260510064252 54 25 0.0 0.9 0.00 0.00 0.00 82 1011.0
20260510063752 55 90 0.0 0.0 0.00 0.00 0.00 82 1011.0
20260510063252 55 179 0.0 0.0 0.00 0.00 0.00 81 1011.0
20260510062751 55 148 0.0 0.9 0.00 0.00 0.00 82 1011.0
20260510062251 55 116 0.0 0.9 0.00 0.00 0.00 81 1011.0
20260510061752 55 46 0.0 0.9 0.00 0.00 0.00 81 1011.0
20260510061251 55 54 0.0 0.0 0.00 0.00 0.00 81 1011.0
20260510060751 55 90 0.0 0.9 0.00 0.00 0.00 82 1011.0
20260510060252 56 254 0.0 0.0 0.00 0.00 0.00 82 1011.0
20260510055752 56 138 0.0 0.0 0.00 0.00 0.00 82 1011.0
20260510055252 55 147 0.0 0.9 0.00 0.00 0.00 82 1011.0
20260510054751 56 311 0.0 0.9 0.00 0.00 0.00 82 1011.0
20260510054252 55 0 0.0 0.9 0.00 0.00 0.00 80 1011.0
20260510053327 55 12 0.9 0.9 0.00 0.00 0.00 81 1012.0
20260510052829 56 47 0.0 0.9 0.00 0.00 0.00 80 1011.0
20260510052327 56 25 0.9 0.9 0.00 0.00 0.00 80 1011.0
20260510051615 56 18 0.0 0.9 0.00 0.00 0.00 79 1011.0
20260510051114 57 90 0.0 0.9 0.00 0.00 0.00 79 1011.0
20260510050402 57 210 0.0 0.9 0.00 0.00 0.00 78 1011.0
20260510045650 57 62 0.0 0.9 0.00 0.00 0.00 78 1011.0
20260510044938 58 32 0.0 0.9 0.00 0.00 0.00 79 1012.0
20260510044438 58 90 0.0 0.0 0.00 0.00 0.00 78 1011.0
20260510043938 58 0 0.0 0.0 0.00 0.00 0.00 79 1012.0
20260510043438 58 136 0.0 0.0 0.00 0.00 0.00 78 1012.0
20260510042938 58 122 0.0 0.0 0.00 0.00 0.00 77 1012.0
20260510042439 58 57 0.0 0.9 0.00 0.00 0.00 77 1012.0
20260510041939 58 0 0.0 0.9 0.00 0.00 0.00 77 1012.0
20260510041438 59 90 0.0 0.0 0.00 0.00 0.00 77 1012.0
20260510040939 59 146 0.0 0.0 0.00 0.00 0.00 77 1011.0
20260510040437 59 179 0.0 0.0 0.00 0.00 0.00 77 1011.0
20260510035937 59 0 0.0 0.0 0.00 0.00 0.00 76 1011.0
20260510035227 59 151 0.0 0.0 0.00 0.00 0.00 76 1011.0
20260510034725 60 0 0.0 0.9 0.00 0.00 0.00 76 1011.0
20260510034226 60 90 0.0 0.0 0.00 0.00 0.00 75 1011.0
20260510033515 60 30 0.0 0.0 0.00 0.00 0.00 75 1011.0
20260510033015 60 90 0.0 0.9 0.00 0.00 0.00 75 1011.0
20260510032514 60 90 0.0 0.0 0.00 0.00 0.00 75 1011.0
20260510032014 60 179 0.0 0.0 0.00 0.00 0.00 74 1011.0
20260510031302 60 134 0.0 0.0 0.00 0.00 0.00 75 1012.0
20260510030803 60 179 0.0 0.9 0.00 0.00 0.00 75 1011.0
20260510030303 60 90 0.0 0.0 0.00 0.00 0.00 74 1011.0
20260510025803 60 90 0.0 0.0 0.00 0.00 0.00 75 1011.0
20260510025305 60 0 0.0 0.0 0.00 0.00 0.00 74 1011.0
20260510024803 60 0 0.0 0.9 0.00 0.00 0.00 73 1011.0
20260510024302 60 50 0.0 0.9 0.00 0.00 0.00 72 1011.0
20260510023803 60 43 0.0 0.9 0.00 0.00 0.00 73 1011.0
20260510023302 60 61 0.9 0.9 0.00 0.00 0.00 73 1011.0
20260510022549 60 50 0.0 0.9 0.00 0.00 0.00 73 1011.0
20260510022050 60 29 0.0 1.7 0.00 0.00 0.00 72 1011.0
20260510021549 61 56 0.0 1.7 0.00 0.00 0.00 72 1011.0
20260510020837 61 179 0.0 0.9 0.00 0.00 0.00 72 1011.0
20260510020126 61 90 0.0 0.9 0.00 0.00 0.00 71 1011.0
20260510015626 61 50 0.9 1.7 0.00 0.00 0.00 71 1011.0
20260510014914 61 120 0.0 1.7 0.00 0.00 0.00 71 1011.0
20260510014203 61 58 0.9 1.7 0.00 0.00 0.00 70 1011.0
20260510013704 62 74 0.9 2.6 0.00 0.00 0.00 71 1011.0
20260510013204 62 58 0.9 1.7 0.00 0.00 0.00 71 1011.0
20260510012703 62 55 0.0 0.9 0.00 0.00 0.00 71 1011.0
20260510011951 62 90 0.0 0.9 0.00 0.00 0.00 71 1011.0
20260510011452 62 90 0.0 0.9 0.00 0.00 0.00 70 1011.0
20260510010952 63 90 0.0 0.9 0.00 0.00 0.00 70 1011.0
20260510010451 63 90 0.0 0.9 0.00 0.00 0.00 69 1011.0
20260510005951 63 90 0.0 1.7 0.00 0.00 0.00 70 1011.0
20260510005451 63 123 0.0 0.9 0.00 0.00 0.00 69 1010.0
20260510004951 64 63 0.0 0.9 0.00 0.00 0.00 69 1010.0
20260510004451 64 90 0.0 0.9 0.00 0.00 0.00 69 1010.0
20260510003950 64 90 0.0 1.7 0.00 0.00 0.00 68 1010.0
20260510003238 65 69 0.9 1.7 0.00 0.00 0.00 67 1010.0
20260510002738 65 90 0.0 0.9 0.00 0.00 0.00 66 1010.0
20260510002238 65 64 0.9 0.9 0.00 0.00 0.00 65 1010.0
20260510001738 65 46 0.9 0.9 0.00 0.00 0.00 65 1010.0
20260510001238 66 319 0.0 0.9 0.00 0.00 0.00 66 1010.0
20260510000738 66 179 0.9 0.9 0.00 0.00 0.00 66 1010.0
20260510000238 66 47 0.0 0.9 0.00 0.00 0.00 64 1010.0
20260509235526 66 44 0.9 0.9 0.00 0.00 0.00 63 1010.0
20260509234816 66 78 0.9 1.7 0.00 0.00 0.00 63 1010.0
20260509234315 67 66 0.0 0.9 0.00 0.00 0.00 62 1010.0
20260509233815 67 65 0.0 0.9 0.00 0.00 0.00 62 1010.0
20260509233315 67 50 0.0 0.0 0.00 0.00 0.00 62 1010.0
20260509232604 67 90 0.0 0.9 0.00 0.00 0.00 61 1010.0
20260509232104 67 68 0.9 0.9 0.00 0.00 0.00 61 1010.0
20260509231603 67 66 0.0 0.9 0.00 0.00 0.00 60 1010.0
20260509231102 67 57 0.0 0.9 0.00 0.00 0.00 61 1010.0
20260509230602 67 55 0.9 1.7 0.00 0.00 0.00 61 1010.0
20260509225604 67 79 0.9 2.6 0.00 0.00 0.00 60 1010.0
20260509225104 67 315 0.0 2.6 0.00 0.00 0.00 60 1010.0
20260509224602 67 65 0.9 3.5 0.00 0.00 0.00 60 1010.0
20260509224102 67 66 0.9 2.6 0.00 0.00 0.00 59 1010.0
20260509223602 68 117 0.0 2.6 0.00 0.00 0.00 59 1010.0
20260509223102 68 66 1.7 2.6 0.00 0.00 0.00 59 1010.0
20260509222604 69 64 0.0 1.7 0.00 0.00 0.00 60 1010.0
20260509222102 69 51 0.9 5.2 0.00 0.00 0.00 60 1010.0
20260509221602 69 179 0.9 2.6 0.00 0.00 0.00 59 1010.0
20260509221102 69 90 0.9 2.6 0.00 0.00 0.00 58 1010.0
20260509220602 69 51 0.9 1.7 0.00 0.00 0.00 59 1010.0
20260509215602 68 56 0.0 2.6 0.00 0.00 0.00 57 1010.0
20260509214851 69 24 1.7 3.5 0.00 0.00 0.00 56 1010.0
20260509214350 69 11 0.9 2.6 0.00 0.00 0.00 58 1010.0
20260509213851 69 50 1.7 2.6 0.00 0.00 0.00 57 1010.0
20260509213351 69 39 0.0 2.6 0.00 0.00 0.00 56 1010.0
20260509212850 70 65 0.9 0.9 0.00 0.00 0.00 57 1010.0
20260509212351 69 49 0.9 0.9 0.00 0.00 0.00 57 1010.0
20260509211850 69 49 0.0 1.7 0.00 0.00 0.00 58 1010.0
20260509211350 70 25 0.9 2.6 0.00 0.00 0.00 57 1010.0
20260509210850 70 0 0.0 1.7 0.00 0.00 0.00 57 1010.0
20260509210350 69 62 1.7 1.7 0.00 0.00 0.00 57 1010.0
20260509205851 70 56 0.9 2.6 0.00 0.00 0.00 56 1010.0
20260509205350 69 62 1.7 2.6 0.00 0.00 0.00 56 1010.0
20260509204850 71 64 2.6 3.5 0.00 0.00 0.00 54 1010.0
20260509203926 71 57 0.0 2.6 0.00 0.00 0.00 52 1010.0
20260509203426 72 228 2.6 2.6 0.00 0.00 0.00 53 1009.0
20260509202926 72 47 0.0 4.3 0.00 0.00 0.00 51 1009.0
20260509202426 72 135 1.7 3.5 0.00 0.00 0.00 51 1010.0
20260509201926 71 37 0.9 6.1 0.00 0.00 0.00 53 1010.0
20260509201427 71 34 0.9 4.3 0.00 0.00 0.00 52 1010.0
20260509200926 71 110 2.6 6.1 0.00 0.00 0.00 52 1010.0
20260509200426 72 58 0.0 3.5 0.00 0.00 0.00 51 1010.0
20260509195926 72 159 0.9 3.5 0.00 0.00 0.00 50 1010.0
20260509195426 72 162 0.9 1.7 0.00 0.00 0.00 53 1010.0
20260509194926 71 79 0.9 4.3 0.00 0.00 0.00 52 1010.0
20260509194426 71 90 0.0 2.6 0.00 0.00 0.00 50 1010.0
20260509193926 71 56 0.0 5.2 0.00 0.00 0.00 51 1010.0
20260509193427 71 82 1.7 5.2 0.00 0.00 0.00 49 1010.0
20260509192926 72 43 0.9 2.6 0.00 0.00 0.00 50 1011.0
20260509192427 72 81 0.9 2.6 0.00 0.00 0.00 50 1011.0
20260509191927 71 298 0.0 0.0 0.00 0.00 0.00 51 1011.0
20260509190540 70 64 2.6 3.5 0.00 0.00 0.00 53 1011.0
20260509185829 69 146 0.9 0.9 0.00 0.00 0.00 52 1011.0
20260509185330 69 90 0.0 2.6 0.00 0.00 0.00 57 1011.0
20260509184828 70 41 0.0 3.5 0.00 0.00 0.00 54 1011.0
20260509184116 69 78 1.7 3.5 0.00 0.00 0.00 53 1011.0
20260509183616 68 107 0.9 2.6 0.00 0.00 0.00 53 1011.0
20260509183116 68 66 0.9 1.7 0.00 0.00 0.00 52 1011.0
20260509182616 68 110 0.9 0.9 0.00 0.00 0.00 51 1011.0
20260509182117 67 35 0.9 0.9 0.00 0.00 0.00 54 1011.0
20260509181618 67 57 0.9 0.9 0.00 0.00 0.00 54 1011.0
20260509181117 67 48 0.9 0.9 0.00 0.00 0.00 54 1011.0
20260509180618 67 36 0.9 1.7 0.00 0.00 0.00 54 1011.0
20260509180116 67 63 0.0 1.7 0.00 0.00 0.00 54 1012.0
20260509175616 67 13 0.9 2.6 0.00 0.00 0.00 54 1012.0
20260509175116 68 70 0.9 0.9 0.00 0.00 0.00 53 1012.0
20260509174404 68 40 0.9 5.2 0.00 0.00 0.00 52 1012.0
20260509173905 67 90 0.0 3.5 0.00 0.00 0.00 52 1012.0
20260509173404 67 90 0.9 0.9 0.00 0.00 0.00 57 1012.0
20260509172651 67 332 0.9 1.7 0.00 0.00 0.00 54 1012.0
20260509172150 67 21 0.9 2.6 0.00 0.00 0.00 54 1012.0
20260509171650 67 293 0.0 1.7 0.00 0.00 0.00 53 1012.0
20260509171150 66 50 0.0 2.6 0.00 0.00 0.00 52 1012.0
20260509170652 66 0 0.9 1.7 0.00 0.00 0.00 53 1012.0
20260509170150 67 0 1.7 1.7 0.00 0.00 0.00 54 1012.0
20260509165651 66 45 0.9 5.2 0.00 0.00 0.00 53 1012.0
20260509165150 66 52 0.0 0.9 0.00 0.00 0.00 54 1012.0